Time,TemperatureF,DewpointF,PressureIn,WindDirection,WindDirectionDegrees,WindSpeedMPH,WindSpeedGustMPH,Humidity,HourlyPrecipIn,Conditions,Clouds,dailyrainin,SoftwareType,DateUTC
2013-06-17 00:01:00,58.8,52.0,30.09,SSE,157,0.0,0.0,77,0.00,,,0.00,Rainwise IP-100,2013-06-17 07:01:00,
2013-06-17 00:06:00,58.5,52.0,30.09,SSE,157,0.0,0.0,78,0.00,,,0.00,Rainwise IP-100,2013-06-17 07:06:00,
2013-06-17 00:11:00,58.3,51.0,30.10,SSE,157,0.0,0.0,78,0.00,,,0.00,Rainwise IP-100,2013-06-17 07:11:00,
2013-06-17 00:16:00,58.0,51.0,30.09,SSE,157,0.0,0.0,78,0.00,,,0.00,Rainwise IP-100,2013-06-17 07:16:00,
2013-06-17 00:21:00,57.8,52.0,30.09,SSE,157,0.0,0.0,79,0.00,,,0.00,Rainwise IP-100,2013-06-17 07:21:00,
2013-06-17 00:26:00,57.5,51.0,30.09,SSE,157,0.0,0.0,79,0.00,,,0.00,Rainwise IP-100,2013-06-17 07:26:00,
2013-06-17 00:31:00,57.2,51.0,30.10,SSE,157,0.0,0.0,80,0.00,,,0.00,Rainwise IP-100,2013-06-17 07:31:00,
2013-06-17 00:36:00,57.0,51.0,30.10,SSE,157,0.0,0.0,80,0.00,,,0.00,Rainwise IP-100,2013-06-17 07:36:00,
2013-06-17 00:41:00,56.7,50.5,30.09,SSE,157,0.0,0.0,81,0.00,,,0.00,Rainwise IP-100,2013-06-17 07:41:00,
2013-06-17 00:46:00,56.5,51.0,30.10,SSE,157,0.0,0.0,82,0.00,,,0.00,Rainwise IP-100,2013-06-17 07:46:00,
2013-06-17 00:51:00,56.4,51.0,30.09,SSE,157,0.0,0.0,82,0.00,,,0.00,Rainwise IP-100,2013-06-17 07:51:00,
2013-06-17 00:56:00,56.2,50.5,30.09,SSE,157,0.0,0.0,83,0.00,,,0.00,Rainwise IP-100,2013-06-17 07:56:00,
2013-06-17 01:01:00,56.1,50.5,30.09,SSE,157,0.0,0.0,83,0.00,,,0.00,Rainwise IP-100,2013-06-17 08:01:00,
2013-06-17 01:06:00,56.0,51.0,30.09,SSE,157,0.0,0.0,84,0.00,,,0.00,Rainwise IP-100,2013-06-17 08:06:00,
2013-06-17 01:11:00,55.9,51.0,30.09,SSE,157,0.0,0.0,84,0.00,,,0.00,Rainwise IP-100,2013-06-17 08:11:00,
2013-06-17 01:16:00,55.9,51.0,30.09,SSE,157,0.0,0.0,84,0.00,,,0.00,Rainwise IP-100,2013-06-17 08:16:00,
2013-06-17 01:21:00,55.9,51.0,30.09,SSE,157,0.0,0.0,84,0.00,,,0.00,Rainwise IP-100,2013-06-17 08:21:00,
2013-06-17 01:26:00,56.0,51.0,30.09,SSE,157,0.0,0.0,85,0.00,,,0.00,Rainwise IP-100,2013-06-17 08:26:00,
2013-06-17 01:31:00,56.1,51.0,30.09,SSE,157,0.0,0.0,85,0.00,,,0.00,Rainwise IP-100,2013-06-17 08:31:00,
2013-06-17 01:36:00,56.3,52.0,30.09,SSE,157,0.0,0.0,85,0.00,,,0.00,Rainwise IP-100,2013-06-17 08:36:00,
2013-06-17 01:41:00,56.5,52.0,30.09,SSE,157,0.0,0.0,84,0.00,,,0.00,Rainwise IP-100,2013-06-17 08:41:00,
2013-06-17 01:46:00,56.9,52.0,30.09,SSE,157,0.0,0.0,84,0.00,,,0.00,Rainwise IP-100,2013-06-17 08:46:00,
2013-06-17 01:51:00,57.2,52.0,30.09,SSE,157,0.0,0.0,83,0.00,,,0.00,Rainwise IP-100,2013-06-17 08:51:00,
2013-06-17 01:56:00,57.4,52.0,30.09,SSE,157,0.0,0.0,82,0.00,,,0.00,Rainwise IP-100,2013-06-17 08:56:00,
2013-06-17 02:01:00,57.6,52.0,30.09,SSE,157,0.0,0.0,82,0.00,,,0.00,Rainwise IP-100,2013-06-17 09:01:00,
2013-06-17 02:06:00,57.8,53.0,30.09,SSE,157,0.0,0.0,82,0.00,,,0.00,Rainwise IP-100,2013-06-17 09:06:00,
2013-06-17 02:11:00,58.0,53.0,30.08,SSE,157,0.0,0.0,81,0.00,,,0.00,Rainwise IP-100,2013-06-17 09:11:00,
2013-06-17 02:16:00,58.2,53.0,30.09,SSE,157,0.0,0.0,81,0.00,,,0.00,Rainwise IP-100,2013-06-17 09:16:00,
2013-06-17 02:21:00,58.3,53.0,30.08,SSE,157,0.0,2.1,81,0.00,,,0.00,Rainwise IP-100,2013-06-17 09:21:00,
2013-06-17 02:26:00,58.4,53.0,30.08,SSE,157,0.0,1.4,81,0.00,,,0.00,Rainwise IP-100,2013-06-17 09:26:00,
2013-06-17 02:31:00,58.4,53.0,30.08,SSE,157,0.0,0.0,81,0.00,,,0.00,Rainwise IP-100,2013-06-17 09:31:00,
2013-06-17 02:36:00,58.3,53.0,30.08,SSE,157,0.0,0.0,81,0.00,,,0.00,Rainwise IP-100,2013-06-17 09:36:00,
2013-06-17 02:41:00,58.2,53.0,30.08,WSW,247,1.4,2.6,81,0.00,,,0.00,Rainwise IP-100,2013-06-17 09:41:00,
2013-06-17 02:46:00,58.3,53.0,30.08,WSW,247,0.0,2.6,81,0.00,,,0.00,Rainwise IP-100,2013-06-17 09:46:00,
2013-06-17 02:51:00,58.3,53.0,30.08,SSW,202,0.0,1.9,81,0.00,,,0.00,Rainwise IP-100,2013-06-17 09:51:00,
2013-06-17 02:56:00,58.2,53.0,30.07,SSW,202,0.0,1.4,81,0.00,,,0.00,Rainwise IP-100,2013-06-17 09:56:00,
2013-06-17 03:01:00,58.2,53.0,30.08,SSW,202,1.4,1.6,81,0.00,,,0.00,Rainwise IP-100,2013-06-17 10:01:00,
2013-06-17 03:06:00,58.1,53.0,30.07,SSW,202,1.2,1.9,81,0.00,,,0.00,Rainwise IP-100,2013-06-17 10:06:00,
2013-06-17 03:11:00,58.0,53.0,30.07,South,180,0.0,2.3,81,0.00,,,0.00,Rainwise IP-100,2013-06-17 10:11:00,
2013-06-17 03:16:00,57.9,53.0,30.07,South,180,0.0,1.4,82,0.00,,,0.00,Rainwise IP-100,2013-06-17 10:16:00,
2013-06-17 03:21:00,57.9,53.0,30.07,South,180,0.0,1.4,82,0.00,,,0.00,Rainwise IP-100,2013-06-17 10:21:00,
2013-06-17 03:26:00,57.7,52.0,30.07,SSW,202,0.0,1.6,82,0.00,,,0.00,Rainwise IP-100,2013-06-17 10:26:00,
2013-06-17 03:31:00,57.6,52.0,30.07,SSW,202,0.0,3.3,82,0.00,,,0.00,Rainwise IP-100,2013-06-17 10:31:00,
2013-06-17 03:36:00,57.5,52.0,30.07,SSW,202,0.0,1.2,82,0.00,,,0.00,Rainwise IP-100,2013-06-17 10:36:00,
2013-06-17 03:41:00,57.4,52.0,30.06,South,180,0.0,1.6,82,0.00,,,0.00,Rainwise IP-100,2013-06-17 10:41:00,
2013-06-17 03:46:00,57.2,52.0,30.07,South,180,0.0,2.1,82,0.00,,,0.00,Rainwise IP-100,2013-06-17 10:46:00,
2013-06-17 03:51:00,57.1,52.0,30.07,South,180,0.0,0.0,82,0.00,,,0.00,Rainwise IP-100,2013-06-17 10:51:00,
2013-06-17 03:56:00,57.0,52.0,30.07,South,180,0.0,0.0,82,0.00,,,0.00,Rainwise IP-100,2013-06-17 10:56:00,
2013-06-17 04:01:00,57.0,52.0,30.06,South,180,0.0,0.0,83,0.00,,,0.00,Rainwise IP-100,2013-06-17 11:01:00,
2013-06-17 04:06:00,57.0,52.0,30.06,South,180,0.0,0.0,83,0.00,,,0.00,Rainwise IP-100,2013-06-17 11:06:00,
2013-06-17 04:11:00,56.9,52.0,30.07,South,180,0.0,0.0,83,0.00,,,0.00,Rainwise IP-100,2013-06-17 11:11:00,
2013-06-17 04:16:00,56.8,52.0,30.07,South,180,0.0,0.0,83,0.00,,,0.00,Rainwise IP-100,2013-06-17 11:16:00,
2013-06-17 04:21:00,56.9,52.0,30.07,South,180,0.0,2.1,83,0.00,,,0.00,Rainwise IP-100,2013-06-17 11:21:00,
2013-06-17 04:26:00,56.9,52.0,30.07,SSW,202,0.0,2.1,83,0.00,,,0.00,Rainwise IP-100,2013-06-17 11:26:00,
2013-06-17 04:31:00,57.0,52.0,30.06,SSW,202,0.0,1.6,83,0.00,,,0.00,Rainwise IP-100,2013-06-17 11:31:00,
2013-06-17 04:36:00,57.0,52.0,30.06,SSW,202,0.0,1.9,83,0.00,,,0.00,Rainwise IP-100,2013-06-17 11:36:00,
2013-06-17 04:41:00,57.0,52.0,30.06,SSW,202,0.0,2.8,83,0.00,,,0.00,Rainwise IP-100,2013-06-17 11:41:00,
2013-06-17 04:46:00,56.9,52.0,30.06,SSW,202,0.0,0.0,83,0.00,,,0.00,Rainwise IP-100,2013-06-17 11:46:00,
2013-06-17 04:51:00,56.9,52.0,30.06,SSW,202,0.0,1.9,83,0.00,,,0.00,Rainwise IP-100,2013-06-17 11:51:00,
2013-06-17 04:56:00,56.8,52.0,30.06,SSE,157,0.0,3.5,83,0.00,,,0.00,Rainwise IP-100,2013-06-17 11:56:00,
2013-06-17 05:01:00,56.8,52.0,30.06,SW,225,0.0,1.9,83,0.00,,,0.00,Rainwise IP-100,2013-06-17 12:01:00,
2013-06-17 05:06:00,56.8,52.0,30.06,SW,225,0.0,1.9,84,0.00,,,0.00,Rainwise IP-100,2013-06-17 12:06:00,
2013-06-17 05:11:00,56.7,52.0,30.06,SW,225,0.0,1.9,84,0.00,,,0.00,Rainwise IP-100,2013-06-17 12:11:00,
2013-06-17 05:16:00,56.7,52.0,30.06,SSW,202,1.4,2.3,84,0.00,,,0.00,Rainwise IP-100,2013-06-17 12:16:00,
2013-06-17 05:21:00,56.7,52.0,30.07,SSW,202,0.0,2.6,84,0.00,,,0.00,Rainwise IP-100,2013-06-17 12:21:00,
2013-06-17 05:26:00,56.7,52.0,30.06,SW,225,1.4,1.6,84,0.00,,,0.00,Rainwise IP-100,2013-06-17 12:26:00,
2013-06-17 05:31:00,56.6,52.0,30.07,SW,225,0.0,2.1,84,0.00,,,0.00,Rainwise IP-100,2013-06-17 12:31:00,
2013-06-17 05:36:00,56.6,52.0,30.07,SW,225,0.0,0.0,84,0.00,,,0.00,Rainwise IP-100,2013-06-17 12:36:00,
2013-06-17 05:41:00,56.7,52.0,30.06,SW,225,0.0,0.0,84,0.00,,,0.00,Rainwise IP-100,2013-06-17 12:41:00,
2013-06-17 05:46:00,56.6,52.0,30.07,SW,225,0.0,0.0,84,0.00,,,0.00,Rainwise IP-100,2013-06-17 12:46:00,
2013-06-17 05:51:00,56.6,52.0,30.06,SW,225,0.0,0.0,85,0.00,,,0.00,Rainwise IP-100,2013-06-17 12:51:00,
2013-06-17 05:56:00,56.6,52.0,30.06,SW,225,0.0,0.0,85,0.00,,,0.00,Rainwise IP-100,2013-06-17 12:56:00,
2013-06-17 06:01:00,56.6,52.0,30.07,SSW,202,0.0,1.4,85,0.00,,,0.00,Rainwise IP-100,2013-06-17 13:01:00,
2013-06-17 06:06:00,56.6,52.0,30.06,SSW,202,0.0,1.4,85,0.00,,,0.00,Rainwise IP-100,2013-06-17 13:06:00,
2013-06-17 06:11:00,56.7,52.0,30.06,SSW,202,0.0,0.0,85,0.00,,,0.00,Rainwise IP-100,2013-06-17 13:11:00,
2013-06-17 06:16:00,56.8,52.0,30.06,SSW,202,0.0,0.0,84,0.00,,,0.00,Rainwise IP-100,2013-06-17 13:16:00,
2013-06-17 06:21:00,56.8,52.0,30.06,SSW,202,0.0,1.6,84,0.00,,,0.00,Rainwise IP-100,2013-06-17 13:21:00,
2013-06-17 06:26:00,56.8,52.0,30.06,SSW,202,0.0,2.1,84,0.00,,,0.00,Rainwise IP-100,2013-06-17 13:26:00,
2013-06-17 06:31:00,56.8,52.0,30.06,SW,225,0.0,2.3,84,0.00,,,0.00,Rainwise IP-100,2013-06-17 13:31:00,
2013-06-17 06:36:00,56.8,52.0,30.06,SSE,157,0.0,1.6,84,0.00,,,0.00,Rainwise IP-100,2013-06-17 13:36:00,
2013-06-17 06:41:00,56.8,52.0,30.06,SSE,157,0.0,0.0,84,0.00,,,0.00,Rainwise IP-100,2013-06-17 13:41:00,
2013-06-17 06:46:00,56.8,52.0,30.06,SSE,157,0.0,0.0,84,0.00,,,0.00,Rainwise IP-100,2013-06-17 13:46:00,
2013-06-17 06:51:00,56.9,52.0,30.06,SSW,202,0.0,2.1,84,0.00,,,0.00,Rainwise IP-100,2013-06-17 13:51:00,
2013-06-17 06:56:00,57.0,52.0,30.07,South,180,0.0,1.4,84,0.00,,,0.00,Rainwise IP-100,2013-06-17 13:56:00,
2013-06-17 07:01:00,57.0,52.0,30.06,South,180,0.0,0.0,84,0.00,,,0.00,Rainwise IP-100,2013-06-17 14:01:00,
2013-06-17 07:06:00,57.0,52.0,30.06,South,180,0.0,0.0,84,0.00,,,0.00,Rainwise IP-100,2013-06-17 14:06:00,
2013-06-17 07:11:00,57.0,52.0,30.06,South,180,1.2,1.2,84,0.00,,,0.00,Rainwise IP-100,2013-06-17 14:11:00,
2013-06-17 07:16:00,57.0,52.0,30.06,South,180,0.0,1.2,84,0.00,,,0.00,Rainwise IP-100,2013-06-17 14:16:00,
2013-06-17 07:21:00,57.1,52.0,30.06,WSW,247,0.0,2.1,83,0.00,,,0.00,Rainwise IP-100,2013-06-17 14:21:00,
2013-06-17 07:26:00,57.2,52.0,30.06,WSW,247,0.0,0.0,83,0.00,,,0.00,Rainwise IP-100,2013-06-17 14:26:00,
2013-06-17 07:31:00,57.2,52.0,30.07,WSW,247,0.0,0.0,83,0.00,,,0.00,Rainwise IP-100,2013-06-17 14:31:00,
2013-06-17 07:36:00,57.3,53.0,30.06,WSW,247,0.0,1.4,83,0.00,,,0.00,Rainwise IP-100,2013-06-17 14:36:00,
2013-06-17 07:41:00,57.3,53.0,30.06,WSW,247,0.0,0.0,83,0.00,,,0.00,Rainwise IP-100,2013-06-17 14:41:00,
2013-06-17 07:46:00,57.3,52.0,30.06,WSW,247,1.2,2.6,82,0.00,,,0.00,Rainwise IP-100,2013-06-17 14:46:00,
2013-06-17 07:51:00,57.3,52.0,30.06,SSW,202,1.2,1.9,82,0.00,,,0.00,Rainwise IP-100,2013-06-17 14:51:00,
2013-06-17 07:56:00,57.3,52.0,30.06,SSW,202,1.4,1.9,82,0.00,,,0.00,Rainwise IP-100,2013-06-17 14:56:00,
2013-06-17 08:01:00,57.4,52.0,30.06,SSW,202,0.0,1.6,82,0.00,,,0.00,Rainwise IP-100,2013-06-17 15:01:00,
2013-06-17 08:06:00,57.5,52.0,30.06,SSW,202,0.0,1.4,82,0.00,,,0.00,Rainwise IP-100,2013-06-17 15:06:00,
2013-06-17 08:11:00,57.6,52.0,30.06,NNE,22,0.0,1.4,82,0.00,,,0.00,Rainwise IP-100,2013-06-17 15:11:00,
2013-06-17 08:16:00,57.7,52.0,30.06,South,180,0.0,1.9,82,0.00,,,0.00,Rainwise IP-100,2013-06-17 15:16:00,
2013-06-17 08:21:00,57.9,53.0,30.06,South,180,0.0,1.9,81,0.00,,,0.00,Rainwise IP-100,2013-06-17 15:21:00,
2013-06-17 08:26:00,58.2,53.0,30.06,South,180,0.0,2.3,81,0.00,,,0.00,Rainwise IP-100,2013-06-17 15:26:00,
2013-06-17 08:31:00,58.4,52.0,30.06,SSW,202,0.0,2.8,80,0.00,,,0.00,Rainwise IP-100,2013-06-17 15:31:00,
2013-06-17 08:36:00,58.8,53.0,30.06,SSW,202,1.2,2.3,79,0.00,,,0.00,Rainwise IP-100,2013-06-17 15:36:00,
2013-06-17 08:41:00,59.0,53.0,30.06,SSW,202,0.0,2.6,79,0.00,,,0.00,Rainwise IP-100,2013-06-17 15:41:00,
2013-06-17 08:46:00,59.4,53.0,30.06,SSW,202,1.2,1.6,78,0.00,,,0.00,Rainwise IP-100,2013-06-17 15:46:00,
2013-06-17 08:51:00,59.9,53.0,30.06,WSW,247,0.0,2.3,77,0.00,,,0.00,Rainwise IP-100,2013-06-17 15:51:00,
2013-06-17 08:56:00,60.2,53.0,30.06,WSW,247,0.0,2.1,76,0.00,,,0.00,Rainwise IP-100,2013-06-17 15:56:00,
2013-06-17 09:01:00,60.3,53.0,30.06,SW,225,0.0,1.9,75,0.00,,,0.00,Rainwise IP-100,2013-06-17 16:01:00,
2013-06-17 09:06:00,60.6,53.0,30.06,SSW,202,0.0,2.8,75,0.00,,,0.00,Rainwise IP-100,2013-06-17 16:06:00,
2013-06-17 09:11:00,60.8,53.0,30.06,WSW,247,0.0,3.0,74,0.00,,,0.00,Rainwise IP-100,2013-06-17 16:11:00,
2013-06-17 09:16:00,61.0,53.0,30.06,SSW,202,1.9,2.6,74,0.00,,,0.00,Rainwise IP-100,2013-06-17 16:16:00,
2013-06-17 09:21:00,61.1,53.0,30.06,SSW,202,1.4,2.8,74,0.00,,,0.00,Rainwise IP-100,2013-06-17 16:21:00,
2013-06-17 09:26:00,61.3,53.5,30.06,SSW,202,0.0,2.3,74,0.00,,,0.00,Rainwise IP-100,2013-06-17 16:26:00,
2013-06-17 09:31:00,61.3,53.5,30.06,SSE,157,0.0,1.9,74,0.00,,,0.00,Rainwise IP-100,2013-06-17 16:31:00,
2013-06-17 09:36:00,61.2,53.0,30.05,SSE,157,0.0,2.6,74,0.00,,,0.00,Rainwise IP-100,2013-06-17 16:36:00,
2013-06-17 09:41:00,61.2,52.0,30.05,South,180,1.2,2.1,73,0.00,,,0.00,Rainwise IP-100,2013-06-17 16:41:00,
2013-06-17 09:46:00,61.3,53.0,30.05,WSW,247,2.1,2.1,73,0.00,,,0.00,Rainwise IP-100,2013-06-17 16:46:00,
2013-06-17 09:51:00,61.6,53.0,30.05,SSW,202,1.4,2.6,73,0.00,,,0.00,Rainwise IP-100,2013-06-17 16:51:00,
2013-06-17 09:56:00,62.1,53.5,30.05,WSW,247,0.0,2.6,73,0.00,,,0.00,Rainwise IP-100,2013-06-17 16:56:00,
2013-06-17 10:01:00,62.4,53.5,30.05,SSE,157,0.0,3.3,72,0.00,,,0.00,Rainwise IP-100,2013-06-17 17:01:00,
2013-06-17 10:06:00,62.1,53.0,30.05,SW,225,0.0,1.9,72,0.00,,,0.00,Rainwise IP-100,2013-06-17 17:06:00,
2013-06-17 10:11:00,62.0,53.0,30.04,SW,225,1.2,1.9,72,0.00,,,0.00,Rainwise IP-100,2013-06-17 17:11:00,
2013-06-17 10:16:00,62.1,53.0,30.04,WSW,247,0.0,2.1,72,0.00,,,0.00,Rainwise IP-100,2013-06-17 17:16:00,
2013-06-17 10:21:00,62.5,53.5,30.04,WSW,247,0.0,1.4,72,0.00,,,0.00,Rainwise IP-100,2013-06-17 17:21:00,
2013-06-17 10:26:00,62.9,54.0,30.04,SSE,157,0.0,1.9,72,0.00,,,0.00,Rainwise IP-100,2013-06-17 17:26:00,
2013-06-17 10:31:00,63.3,54.0,30.04,SSE,157,0.0,1.4,72,0.00,,,0.00,Rainwise IP-100,2013-06-17 17:31:00,
2013-06-17 10:36:00,63.8,54.0,30.04,WSW,247,1.9,2.6,70,0.00,,,0.00,Rainwise IP-100,2013-06-17 17:36:00,
2013-06-17 10:41:00,64.6,53.5,30.04,SSW,202,1.4,2.3,68,0.00,,,0.00,Rainwise IP-100,2013-06-17 17:41:00,
2013-06-17 10:46:00,64.9,53.5,30.04,WSW,247,0.0,3.5,66,0.00,,,0.00,Rainwise IP-100,2013-06-17 17:46:00,
2013-06-17 10:51:00,65.4,53.5,30.03,SW,225,1.9,2.1,65,0.00,,,0.00,Rainwise IP-100,2013-06-17 17:51:00,
2013-06-17 10:56:00,66.3,54.0,30.04,SW,225,0.0,2.3,65,0.00,,,0.00,Rainwise IP-100,2013-06-17 17:56:00,
2013-06-17 11:01:00,67.0,54.5,30.03,SSE,157,0.0,2.6,64,0.00,,,0.00,Rainwise IP-100,2013-06-17 18:01:00,
2013-06-17 11:06:00,67.4,55.0,30.03,SSW,202,1.2,4.0,64,0.00,,,0.00,Rainwise IP-100,2013-06-17 18:06:00,
2013-06-17 11:11:00,67.6,55.0,30.03,South,180,1.2,2.3,65,0.00,,,0.00,Rainwise IP-100,2013-06-17 18:11:00,
2013-06-17 11:16:00,67.9,57.0,30.03,South,180,0.0,2.1,68,0.00,,,0.00,Rainwise IP-100,2013-06-17 18:16:00,
2013-06-17 11:21:00,68.5,59.0,30.02,SSE,157,0.0,2.3,71,0.00,,,0.00,Rainwise IP-100,2013-06-17 18:21:00,
2013-06-17 11:26:00,69.1,60.0,30.02,SSE,157,3.3,0.0,73,0.00,,,0.00,Rainwise IP-100,2013-06-17 18:26:00,
2013-06-17 11:31:00,69.5,59.5,30.02,SW,225,0.0,4.0,70,0.00,,,0.00,Rainwise IP-100,2013-06-17 18:31:00,
2013-06-17 11:36:00,69.9,59.0,30.02,SSW,202,0.0,2.8,68,0.00,,,0.00,Rainwise IP-100,2013-06-17 18:36:00,
2013-06-17 11:41:00,69.6,58.0,30.02,South,180,2.1,3.0,67,0.00,,,0.00,Rainwise IP-100,2013-06-17 18:41:00,
2013-06-17 11:46:00,69.1,57.5,30.02,WSW,247,1.9,2.8,67,0.00,,,0.00,Rainwise IP-100,2013-06-17 18:46:00,
2013-06-17 11:51:00,69.0,57.5,30.01,SSE,157,0.0,2.8,67,0.00,,,0.00,Rainwise IP-100,2013-06-17 18:51:00,
2013-06-17 11:56:00,69.4,57.5,30.02,WSW,247,0.0,3.7,66,0.00,,,0.00,Rainwise IP-100,2013-06-17 18:56:00,
2013-06-17 12:01:00,70.2,57.5,30.01,South,180,1.6,3.7,65,0.00,,,0.00,Rainwise IP-100,2013-06-17 19:01:00,
2013-06-17 12:06:00,70.7,58.0,30.02,SSE,157,2.1,3.3,65,0.00,,,0.00,Rainwise IP-100,2013-06-17 19:06:00,
2013-06-17 12:11:00,70.6,57.0,30.01,SSW,202,0.0,4.2,63,0.00,,,0.00,Rainwise IP-100,2013-06-17 19:11:00,
2013-06-17 12:16:00,70.2,56.5,30.01,WSW,247,0.0,2.6,62,0.00,,,0.00,Rainwise IP-100,2013-06-17 19:16:00,
2013-06-17 12:21:00,69.9,56.5,30.01,SW,225,1.2,4.0,62,0.00,,,0.00,Rainwise IP-100,2013-06-17 19:21:00,
2013-06-17 12:26:00,70.6,57.0,30.01,SSW,202,1.4,2.3,62,0.00,,,0.00,Rainwise IP-100,2013-06-17 19:26:00,
2013-06-17 12:31:00,71.1,56.5,30.01,SSE,157,0.0,3.3,61,0.00,,,0.00,Rainwise IP-100,2013-06-17 19:31:00,
2013-06-17 12:36:00,71.4,56.5,30.01,SSW,202,0.0,3.0,60,0.00,,,0.00,Rainwise IP-100,2013-06-17 19:36:00,
2013-06-17 12:41:00,71.7,57.5,30.01,SSW,202,1.2,3.5,61,0.00,,,0.00,Rainwise IP-100,2013-06-17 19:41:00,
2013-06-17 12:46:00,71.4,56.5,30.00,South,180,0.0,3.5,60,0.00,,,0.00,Rainwise IP-100,2013-06-17 19:46:00,
2013-06-17 12:51:00,71.1,56.0,30.00,South,180,0.0,3.5,59,0.00,,,0.00,Rainwise IP-100,2013-06-17 19:51:00,
2013-06-17 12:56:00,71.0,56.0,30.00,South,180,0.0,3.0,59,0.00,,,0.00,Rainwise IP-100,2013-06-17 19:56:00,
2013-06-17 13:01:00,71.4,56.0,30.00,SSE,157,0.0,2.6,59,0.00,,,0.00,Rainwise IP-100,2013-06-17 20:01:00,
2013-06-17 13:06:00,71.8,56.0,30.00,SSW,202,1.6,4.0,58,0.00,,,0.00,Rainwise IP-100,2013-06-17 20:06:00,
2013-06-17 13:11:00,71.9,56.0,30.00,SSE,157,0.0,3.5,57,0.00,,,0.00,Rainwise IP-100,2013-06-17 20:11:00,
2013-06-17 13:16:00,71.8,55.0,29.99,SW,225,2.1,2.8,57,0.00,,,0.00,Rainwise IP-100,2013-06-17 20:16:00,
2013-06-17 13:21:00,72.0,57.0,29.99,South,180,0.0,2.6,59,0.00,,,0.00,Rainwise IP-100,2013-06-17 20:21:00,
2013-06-17 13:26:00,72.3,57.0,29.99,SSW,202,1.6,4.0,59,0.00,,,0.00,Rainwise IP-100,2013-06-17 20:26:00,
2013-06-17 13:31:00,72.4,56.5,29.99,SE,135,0.0,2.3,58,0.00,,,0.00,Rainwise IP-100,2013-06-17 20:31:00,
2013-06-17 13:36:00,72.5,57.0,29.99,SSW,202,1.2,3.0,58,0.00,,,0.00,Rainwise IP-100,2013-06-17 20:36:00,
2013-06-17 13:41:00,72.5,56.5,29.98,South,180,0.0,2.3,57,0.00,,,0.00,Rainwise IP-100,2013-06-17 20:41:00,
2013-06-17 13:46:00,72.4,56.0,29.98,South,180,0.0,3.5,56,0.00,,,0.00,Rainwise IP-100,2013-06-17 20:46:00,
2013-06-17 13:51:00,72.4,54.5,29.98,SW,225,1.4,4.2,54,0.00,,,0.00,Rainwise IP-100,2013-06-17 20:51:00,
2013-06-17 13:56:00,72.6,55.0,29.98,WSW,247,1.9,2.3,54,0.00,,,0.00,Rainwise IP-100,2013-06-17 20:56:00,
2013-06-17 14:01:00,72.9,54.5,29.98,South,180,1.4,3.3,53,0.00,,,0.00,Rainwise IP-100,2013-06-17 21:01:00,
2013-06-17 14:06:00,72.9,54.0,29.98,SSW,202,2.1,4.0,51,0.00,,,0.00,Rainwise IP-100,2013-06-17 21:06:00,
2013-06-17 14:11:00,73.1,53.5,29.98,SW,225,1.2,3.3,50,0.00,,,0.00,Rainwise IP-100,2013-06-17 21:11:00,
2013-06-17 14:16:00,73.4,54.0,29.98,South,180,0.0,2.8,51,0.00,,,0.00,Rainwise IP-100,2013-06-17 21:16:00,
2013-06-17 14:21:00,73.5,54.5,29.97,WSW,247,0.0,4.2,51,0.00,,,0.00,Rainwise IP-100,2013-06-17 21:21:00,
2013-06-17 14:26:00,73.6,53.5,29.97,SSW,202,0.0,4.0,49,0.00,,,0.00,Rainwise IP-100,2013-06-17 21:26:00,
2013-06-17 14:31:00,73.6,52.0,29.97,SW,225,1.4,3.5,47,0.00,,,0.00,Rainwise IP-100,2013-06-17 21:31:00,
2013-06-17 14:36:00,73.9,53.5,29.97,SW,225,1.2,4.0,48,0.00,,,0.00,Rainwise IP-100,2013-06-17 21:36:00,
2013-06-17 14:41:00,74.4,54.0,29.97,SW,225,1.2,3.7,49,0.00,,,0.00,Rainwise IP-100,2013-06-17 21:41:00,
2013-06-17 14:46:00,74.7,54.5,29.97,SW,225,1.2,3.3,49,0.00,,,0.00,Rainwise IP-100,2013-06-17 21:46:00,
2013-06-17 14:51:00,74.8,54.0,29.96,SSW,202,0.0,3.7,48,0.00,,,0.00,Rainwise IP-100,2013-06-17 21:51:00,
2013-06-17 14:56:00,75.0,54.5,29.96,SW,225,1.4,3.3,49,0.00,,,0.00,Rainwise IP-100,2013-06-17 21:56:00,
2013-06-17 15:01:00,75.0,54.0,29.96,SSW,202,2.1,2.8,48,0.00,,,0.00,Rainwise IP-100,2013-06-17 22:01:00,
2013-06-17 15:06:00,75.0,53.5,29.96,SSE,157,1.9,4.0,47,0.00,,,0.00,Rainwise IP-100,2013-06-17 22:06:00,
2013-06-17 15:11:00,75.2,53.0,29.95,SSW,202,3.3,3.7,46,0.00,,,0.00,Rainwise IP-100,2013-06-17 22:11:00,
2013-06-17 15:16:00,74.9,53.0,29.95,SSE,157,1.2,3.3,45,0.00,,,0.00,Rainwise IP-100,2013-06-17 22:16:00,
2013-06-17 15:21:00,74.6,53.0,29.95,SSW,202,1.2,2.1,46,0.00,,,0.00,Rainwise IP-100,2013-06-17 22:21:00,
2013-06-17 15:26:00,74.7,52.0,29.95,South,180,1.9,4.4,45,0.00,,,0.00,Rainwise IP-100,2013-06-17 22:26:00,
2013-06-17 15:31:00,74.9,51.0,29.95,WSW,247,0.0,5.1,43,0.00,,,0.00,Rainwise IP-100,2013-06-17 22:31:00,
2013-06-17 15:36:00,74.6,50.5,29.95,SSW,202,1.2,3.5,42,0.00,,,0.00,Rainwise IP-100,2013-06-17 22:36:00,
2013-06-17 15:41:00,74.1,50.0,29.94,South,180,0.0,2.6,42,0.00,,,0.00,Rainwise IP-100,2013-06-17 22:41:00,
2013-06-17 15:46:00,74.4,50.0,29.94,SSW,202,2.1,3.5,42,0.00,,,0.00,Rainwise IP-100,2013-06-17 22:46:00,
2013-06-17 15:51:00,74.4,50.0,29.94,WSW,247,2.3,2.8,42,0.00,,,0.00,Rainwise IP-100,2013-06-17 22:51:00,
2013-06-17 15:56:00,74.1,50.0,29.94,South,180,0.0,2.8,42,0.00,,,0.00,Rainwise IP-100,2013-06-17 22:56:00,
2013-06-17 16:01:00,74.0,50.0,29.94,South,180,1.4,2.6,42,0.00,,,0.00,Rainwise IP-100,2013-06-17 23:01:00,
2013-06-17 16:06:00,74.3,50.0,29.93,SW,225,2.1,3.3,42,0.00,,,0.00,Rainwise IP-100,2013-06-17 23:06:00,
2013-06-17 16:11:00,74.3,50.0,29.93,SSW,202,0.0,3.3,42,0.00,,,0.00,Rainwise IP-100,2013-06-17 23:11:00,
2013-06-17 16:16:00,74.2,49.0,29.92,South,180,2.8,2.8,41,0.00,,,0.00,Rainwise IP-100,2013-06-17 23:16:00,
2013-06-17 16:21:00,74.4,49.0,29.92,WSW,247,1.2,2.8,41,0.00,,,0.00,Rainwise IP-100,2013-06-17 23:21:00,
2013-06-17 16:26:00,74.7,49.0,29.92,South,180,2.1,3.0,40,0.00,,,0.00,Rainwise IP-100,2013-06-17 23:26:00,
2013-06-17 16:31:00,74.5,48.0,29.92,South,180,2.1,2.3,39,0.00,,,0.00,Rainwise IP-100,2013-06-17 23:31:00,
2013-06-17 16:36:00,74.4,48.0,29.92,South,180,1.9,2.3,40,0.00,,,0.00,Rainwise IP-100,2013-06-17 23:36:00,
2013-06-17 16:41:00,74.3,48.0,29.92,WSW,247,1.4,3.0,40,0.00,,,0.00,Rainwise IP-100,2013-06-17 23:41:00,
2013-06-17 16:46:00,74.3,48.0,29.91,SSW,202,0.0,2.1,39,0.00,,,0.00,Rainwise IP-100,2013-06-17 23:46:00,
2013-06-17 16:51:00,74.4,48.0,29.92,South,180,0.0,2.8,40,0.00,,,0.00,Rainwise IP-100,2013-06-17 23:51:00,
2013-06-17 16:56:00,74.4,48.0,29.91,South,180,0.0,2.3,40,0.00,,,0.00,Rainwise IP-100,2013-06-17 23:56:00,
2013-06-17 17:01:00,74.4,48.0,29.91,WSW,247,0.0,2.6,40,0.00,,,0.00,Rainwise IP-100,2013-06-18 00:01:00,
2013-06-17 17:06:00,74.5,48.0,29.90,SSW,202,3.5,3.5,39,0.00,,,0.00,Rainwise IP-100,2013-06-18 00:06:00,
2013-06-17 17:11:00,74.7,48.0,29.90,SW,225,0.0,4.0,39,0.00,,,0.00,Rainwise IP-100,2013-06-18 00:11:00,
2013-06-17 17:16:00,74.7,48.0,29.90,SW,225,1.4,2.8,39,0.00,,,0.00,Rainwise IP-100,2013-06-18 00:16:00,
2013-06-17 17:21:00,74.8,48.0,29.90,SSW,202,0.0,3.0,39,0.00,,,0.00,Rainwise IP-100,2013-06-18 00:21:00,
2013-06-17 17:26:00,75.0,48.0,29.90,SSW,202,3.5,3.5,39,0.00,,,0.00,Rainwise IP-100,2013-06-18 00:26:00,
2013-06-17 17:31:00,75.0,48.0,29.90,WSW,247,1.2,4.0,39,0.00,,,0.00,Rainwise IP-100,2013-06-18 00:31:00,
2013-06-17 17:36:00,75.0,47.5,29.90,SW,225,0.0,4.2,38,0.00,,,0.00,Rainwise IP-100,2013-06-18 00:36:00,
2013-06-17 17:41:00,75.0,48.0,29.90,SW,225,0.0,1.9,39,0.00,,,0.00,Rainwise IP-100,2013-06-18 00:41:00,
2013-06-17 17:46:00,74.6,48.0,29.90,SSW,202,0.0,2.3,39,0.00,,,0.00,Rainwise IP-100,2013-06-18 00:46:00,
2013-06-17 17:51:00,74.4,48.0,29.89,WSW,247,2.1,2.8,39,0.00,,,0.00,Rainwise IP-100,2013-06-18 00:51:00,
2013-06-17 17:56:00,74.4,48.0,29.90,SSW,202,0.0,3.5,39,0.00,,,0.00,Rainwise IP-100,2013-06-18 00:56:00,
2013-06-17 18:01:00,74.4,48.0,29.89,South,180,0.0,2.8,39,0.00,,,0.00,Rainwise IP-100,2013-06-18 01:01:00,
2013-06-17 18:06:00,74.5,49.0,29.89,SW,225,1.2,4.2,40,0.00,,,0.00,Rainwise IP-100,2013-06-18 01:06:00,
2013-06-17 18:11:00,74.6,49.0,29.89,SSW,202,0.0,4.4,40,0.00,,,0.00,Rainwise IP-100,2013-06-18 01:11:00,
2013-06-17 18:16:00,74.6,48.0,29.88,South,180,0.0,2.8,39,0.00,,,0.00,Rainwise IP-100,2013-06-18 01:16:00,
2013-06-17 18:21:00,74.5,48.0,29.89,WSW,247,1.6,4.2,39,0.00,,,0.00,Rainwise IP-100,2013-06-18 01:21:00,
2013-06-17 18:26:00,74.7,48.0,29.88,WSW,247,2.1,3.3,39,0.00,,,0.00,Rainwise IP-100,2013-06-18 01:26:00,
2013-06-17 18:31:00,74.8,48.0,29.88,SW,225,1.4,2.6,39,0.00,,,0.00,Rainwise IP-100,2013-06-18 01:31:00,
2013-06-17 18:36:00,74.7,48.0,29.88,SW,225,0.0,4.0,39,0.00,,,0.00,Rainwise IP-100,2013-06-18 01:36:00,
2013-06-17 18:41:00,74.7,48.0,29.88,SW,225,1.6,1.6,39,0.00,,,0.00,Rainwise IP-100,2013-06-18 01:41:00,
2013-06-17 18:46:00,74.6,48.0,29.88,WSW,247,0.0,1.9,39,0.00,,,0.00,Rainwise IP-100,2013-06-18 01:46:00,
2013-06-17 18:51:00,74.6,48.0,29.89,WSW,247,1.4,3.7,39,0.00,,,0.00,Rainwise IP-100,2013-06-18 01:51:00,
2013-06-17 18:56:00,74.4,48.0,29.88,South,180,1.2,2.8,39,0.00,,,0.00,Rainwise IP-100,2013-06-18 01:56:00,
2013-06-17 19:01:00,74.3,48.0,29.88,SW,225,1.2,2.6,40,0.00,,,0.00,Rainwise IP-100,2013-06-18 02:01:00,
2013-06-17 19:06:00,74.2,48.0,29.88,SSW,202,0.0,3.0,40,0.00,,,0.00,Rainwise IP-100,2013-06-18 02:06:00,
2013-06-17 19:11:00,74.1,48.0,29.88,SSW,202,1.6,3.0,40,0.00,,,0.00,Rainwise IP-100,2013-06-18 02:11:00,
2013-06-17 19:16:00,73.7,49.0,29.89,SSE,157,2.8,2.8,42,0.00,,,0.00,Rainwise IP-100,2013-06-18 02:16:00,
2013-06-17 19:21:00,73.0,51.0,29.89,SW,225,1.6,2.8,46,0.00,,,0.00,Rainwise IP-100,2013-06-18 02:21:00,
2013-06-17 19:26:00,72.0,52.0,29.89,SW,225,1.4,6.1,49,0.00,,,0.00,Rainwise IP-100,2013-06-18 02:26:00,
2013-06-17 19:31:00,71.1,52.0,29.90,South,180,0.0,2.8,51,0.00,,,0.00,Rainwise IP-100,2013-06-18 02:31:00,
2013-06-17 19:36:00,70.5,51.0,29.89,SW,225,1.4,3.0,51,0.00,,,0.00,Rainwise IP-100,2013-06-18 02:36:00,
2013-06-17 19:41:00,70.0,51.0,29.89,South,180,1.2,4.7,52,0.00,,,0.00,Rainwise IP-100,2013-06-18 02:41:00,
2013-06-17 19:46:00,69.7,51.0,29.90,SW,225,1.9,4.2,52,0.00,,,0.00,Rainwise IP-100,2013-06-18 02:46:00,
2013-06-17 19:51:00,69.5,51.0,29.90,SSW,202,1.9,3.5,52,0.00,,,0.00,Rainwise IP-100,2013-06-18 02:51:00,
2013-06-17 19:56:00,69.3,51.0,29.90,SSW,202,1.9,4.4,53,0.00,,,0.00,Rainwise IP-100,2013-06-18 02:56:00,
2013-06-17 20:01:00,68.9,52.0,29.90,SSW,202,4.0,4.0,55,0.00,,,0.00,Rainwise IP-100,2013-06-18 03:01:00,
2013-06-17 20:06:00,67.8,53.0,29.91,SSE,157,4.4,5.6,58,0.00,,,0.00,Rainwise IP-100,2013-06-18 03:06:00,
2013-06-17 20:11:00,66.5,53.0,29.92,SW,225,1.9,4.7,61,0.00,,,0.00,Rainwise IP-100,2013-06-18 03:11:00,
2013-06-17 20:16:00,65.9,53.0,29.91,WSW,247,2.3,6.5,62,0.00,,,0.00,Rainwise IP-100,2013-06-18 03:16:00,
2013-06-17 20:21:00,65.5,53.0,29.92,WSW,247,3.7,4.2,63,0.00,,,0.00,Rainwise IP-100,2013-06-18 03:21:00,
2013-06-17 20:26:00,65.1,52.0,29.92,SSW,202,4.4,4.9,63,0.00,,,0.00,Rainwise IP-100,2013-06-18 03:26:00,
2013-06-17 20:31:00,64.7,52.0,29.92,SE,135,2.6,4.9,64,0.00,,,0.00,Rainwise IP-100,2013-06-18 03:31:00,
2013-06-17 20:36:00,64.4,52.0,29.92,SSW,202,0.0,4.9,64,0.00,,,0.00,Rainwise IP-100,2013-06-18 03:36:00,
2013-06-17 20:41:00,64.2,52.0,29.93,WSW,247,1.9,4.7,65,0.00,,,0.00,Rainwise IP-100,2013-06-18 03:41:00,
2013-06-17 20:46:00,64.0,51.0,29.93,South,180,1.6,5.4,64,0.00,,,0.00,Rainwise IP-100,2013-06-18 03:46:00,
2013-06-17 20:51:00,63.6,51.0,29.93,SSW,202,0.0,3.5,64,0.00,,,0.00,Rainwise IP-100,2013-06-18 03:51:00,
2013-06-17 20:56:00,63.5,51.0,29.94,SSE,157,0.0,2.3,64,0.00,,,0.00,Rainwise IP-100,2013-06-18 03:56:00,
2013-06-17 21:01:00,63.4,51.0,29.94,SSW,202,0.0,2.8,64,0.00,,,0.00,Rainwise IP-100,2013-06-18 04:01:00,
2013-06-17 21:06:00,63.3,50.5,29.94,SSW,202,2.6,4.2,63,0.00,,,0.00,Rainwise IP-100,2013-06-18 04:06:00,
2013-06-17 21:11:00,63.2,50.0,29.94,South,180,2.3,4.0,62,0.00,,,0.00,Rainwise IP-100,2013-06-18 04:11:00,
2013-06-17 21:16:00,63.1,50.0,29.95,SW,225,2.1,5.8,62,0.00,,,0.00,Rainwise IP-100,2013-06-18 04:16:00,
2013-06-17 21:21:00,63.0,50.0,29.96,SW,225,1.2,5.1,62,0.00,,,0.00,Rainwise IP-100,2013-06-18 04:21:00,
2013-06-17 21:26:00,62.9,50.0,29.96,SW,225,1.6,5.1,62,0.00,,,0.00,Rainwise IP-100,2013-06-18 04:26:00,
2013-06-17 21:31:00,62.8,50.0,29.96,SW,225,1.2,3.5,62,0.00,,,0.00,Rainwise IP-100,2013-06-18 04:31:00,
2013-06-17 21:36:00,62.7,50.0,29.97,South,180,0.0,5.4,63,0.00,,,0.00,Rainwise IP-100,2013-06-18 04:36:00,
2013-06-17 21:41:00,62.5,50.0,29.97,SW,225,1.6,6.8,64,0.00,,,0.00,Rainwise IP-100,2013-06-18 04:41:00,
2013-06-17 21:46:00,62.3,51.0,29.97,WSW,247,1.6,3.3,66,0.00,,,0.00,Rainwise IP-100,2013-06-18 04:46:00,
2013-06-17 21:51:00,61.8,52.0,29.97,SW,225,2.6,3.7,69,0.00,,,0.00,Rainwise IP-100,2013-06-18 04:51:00,
2013-06-17 21:56:00,61.0,52.0,29.98,South,180,0.0,2.6,72,0.00,,,0.00,Rainwise IP-100,2013-06-18 04:56:00,
2013-06-17 22:01:00,60.5,52.0,29.98,South,180,0.0,1.6,74,0.00,,,0.00,Rainwise IP-100,2013-06-18 05:01:00,
2013-06-17 22:06:00,60.4,53.0,29.98,South,180,0.0,0.0,75,0.00,,,0.00,Rainwise IP-100,2013-06-18 05:06:00,
2013-06-17 22:11:00,60.2,53.0,29.99,South,180,0.0,0.0,76,0.00,,,0.00,Rainwise IP-100,2013-06-18 05:11:00,
2013-06-17 22:16:00,59.9,53.0,29.99,South,180,0.0,0.0,77,0.00,,,0.00,Rainwise IP-100,2013-06-18 05:16:00,
2013-06-17 22:21:00,59.8,53.0,29.99,South,180,0.0,0.0,77,0.00,,,0.00,Rainwise IP-100,2013-06-18 05:21:00,
2013-06-17 22:26:00,59.8,53.0,29.99,South,180,0.0,1.4,77,0.00,,,0.00,Rainwise IP-100,2013-06-18 05:26:00,
2013-06-17 22:31:00,59.8,53.5,29.98,SW,225,1.9,2.1,78,0.00,,,0.00,Rainwise IP-100,2013-06-18 05:31:00,
2013-06-17 22:36:00,59.8,53.0,29.98,SW,225,0.0,1.9,77,0.00,,,0.00,Rainwise IP-100,2013-06-18 05:36:00,
2013-06-17 22:41:00,59.8,53.0,29.98,SW,225,0.0,2.1,77,0.00,,,0.00,Rainwise IP-100,2013-06-18 05:41:00,
2013-06-17 22:46:00,59.7,52.0,29.98,SW,225,0.0,1.2,77,0.00,,,0.00,Rainwise IP-100,2013-06-18 05:46:00,
2013-06-17 22:51:00,59.7,52.0,29.97,SW,225,0.0,1.9,76,0.00,,,0.00,Rainwise IP-100,2013-06-18 05:51:00,
2013-06-17 22:56:00,59.7,52.0,29.98,SW,225,0.0,0.0,76,0.00,,,0.00,Rainwise IP-100,2013-06-18 05:56:00,
2013-06-17 23:00:00,59.8,53.0,29.97,SW,225,0.0,2.3,76,0.00,,,0.00,Rainwise IP-100,2013-06-18 06:00:00,
2013-06-17 23:05:00,59.8,53.0,29.98,SW,225,0.0,2.1,76,0.00,,,0.00,Rainwise IP-100,2013-06-18 06:05:00,
2013-06-17 23:10:00,59.9,53.0,29.97,SW,225,0.0,0.0,76,0.00,,,0.00,Rainwise IP-100,2013-06-18 06:10:00,
2013-06-17 23:15:00,59.9,53.5,29.97,SW,225,0.0,0.0,79,0.00,,,0.00,Rainwise IP-100,2013-06-18 06:15:00,
2013-06-17 23:20:00,59.7,54.0,29.98,SW,225,0.0,0.0,82,0.00,,,0.00,Rainwise IP-100,2013-06-18 06:20:00,
2013-06-17 23:25:00,59.4,54.0,29.98,SW,225,0.0,0.0,83,0.00,,,0.00,Rainwise IP-100,2013-06-18 06:25:00,
2013-06-17 23:30:00,59.0,54.0,29.98,SSW,202,0.0,3.0,84,0.00,,,0.00,Rainwise IP-100,2013-06-18 06:30:00,
2013-06-17 23:35:00,58.8,54.5,29.98,SSW,202,0.0,2.1,86,0.00,,,0.00,Rainwise IP-100,2013-06-18 06:35:00,
2013-06-17 23:40:00,58.7,54.5,29.98,SSW,202,0.0,1.2,86,0.00,,,0.00,Rainwise IP-100,2013-06-18 06:40:00,
2013-06-17 23:45:00,58.6,54.5,29.97,SSW,202,1.4,3.0,86,0.00,,,0.00,Rainwise IP-100,2013-06-18 06:45:00,
2013-06-17 23:50:00,58.6,54.5,29.98,SSW,202,0.0,1.9,86,0.00,,,0.00,Rainwise IP-100,2013-06-18 06:50:00,
2013-06-17 23:55:00,58.5,55.0,29.98,SW,225,1.6,1.6,87,0.00,,,0.00,Rainwise IP-100,2013-06-18 06:55:00,